Weather in Koelga

Russia / Chelyabinsk Oblast     54°38′55″N   60°54′10″E
temp.,
°C
wind,
m/s
gust,
m/s
humid.,
%
clouds,
%
prec.,
mm/h
press.,
hPa
HPBL,
m
10 august, wed
wed1023:00+18e22770 0.0 101817
02:00+17ne11760 0.0 101911
05:00+15nnw22814 0.0 101914
08:00+19ne23677 0.0 1020173
11:00+24e22505 0.0 1019857
14:00+26ene234497 0.0 10191952
17:00+26ene1243100 0.0 10181752
20:00+20ene337597 0.9 101950
11 august, thu
thu1123:00+19w337837 1.3 101837
02:00+17wsw338411 0.1 101843
05:00+16w22837 0.1 101818
08:00+20sw23710 0.0 1018142
11:00+26sw34495 0.0 1018873
14:00+29sw34395 0.0 10162305
17:00+24nw7960100 0.1 1015470
20:00+19n1188100 0.9 101621
12 august, fri
fri1223:00+17nnw41093100 3.5 1017323
02:00+15nnw5119174 0.0 1018324
05:00+12nw512910 0.0 1019320
08:00+14nw510780 0.0 1020424
11:00+20nw684898 0.0 10191331
14:00+21nw684271 0.0 10191880
17:00+22nw684013 0.0 10172206
20:00+18nw5105635 0.0 1018261
13 august, sat
sat1323:00+15w496664 0.0 1019169
02:00+14w410725 0.0 1018164
05:00+14w411744 0.0 1018192
08:00+17w611641 0.0 1017475
11:00+22wnw710505 0.0 10161422
14:00+24nw8104699 0.0 10162183
17:00+23nw711510 0.0 10161864
20:00+19nnw4861100 0.0 1016205
14 august, sun
sun1423:00+15nnw36720 0.0 1018101
02:00+12nw46741 0.0 101990
05:00+11nnw34740 0.0 102048
08:00+15nnw46600 0.0 1021292
11:00+19n57430 0.0 10211526
14:00+21n46361 0.0 10201974
17:00+21n46330 0.0 10202184
20:00+17n33510 0.0 102131